Flag for Finland Weather past 2 weeks in Kotka, Finland

Now
68 °F

Passing clouds.


Feels Like: 68 °F
Forecast: 55 / 67 °F
Wind: 8 mph from West

Location: Utti

Current Time: Aug 3, 2015 at 8:10:57 PM

Latest Report: Aug 3, 2015 at 7:20 PM


Visibility: N/A

Pressure: 30.07 "Hg

Humidity: 46%

Dew point: 46 °F

Location of KotkaLocation

Historic Weather in Kotka — Graph

°F

Kotka temperature yesterday

Maximum temperature yesterday: 68 °F (at 11:50 AM)
Minimum temperature yesterday: 52 °F (at 5:20 AM)
Average temperature yesterday: 59 °F

Past Weeks' High & Low Weather Summary

 TemperatureHumidityPressure
High72 °F (Jul 21, 3:50 PM)100% (Jul 20, 1:50 AM)30.07 "Hg (Jul 20, 1:50 AM)
Low48 °F (Jul 25, 4:50 AM)38% (Jul 21, 3:50 PM)29.47 "Hg (Jul 29, 3:50 PM)
Average59 °F79%29.69 "Hg
* Reported Jul 19 6:20 PM — Aug 3 6:50 PM, Kotka, Weather by CustomWeather, © 2015

Note: Actual official high and low records may vary slightly from our data, if they occured in-between our weather recording intervals... More about our weather records

Advertising

Kotka weather history for previous 24 hours

 ConditionsComfort  
Time TempWeatherWind HumidityBarometerVisibility
6:50 PM
Mon, Aug 3
68 °FPassing clouds.7 mph49%30.07 "HgN/A
6:20 PM68 °FPassing clouds.7 mph49%30.07 "HgN/A
5:50 PM68 °FPassing clouds.8 mph49%30.04 "HgN/A
5:20 PM68 °FScattered clouds.12 mph46%30.04 "HgN/A
4:50 PM68 °FPartly sunny.10 mph46%30.04 "HgN/A
4:20 PM68 °FPassing clouds.9 mph46%30.04 "HgN/A
3:50 PM68 °FScattered clouds.9 mph46%30.04 "HgN/A
3:20 PM68 °FScattered clouds.9 mph49%30.04 "HgN/A
2:50 PM68 °FScattered clouds.10 mph49%30.04 "HgN/A
2:20 PM66 °FScattered clouds.10 mph52%30.01 "HgN/A
1:50 PM68 °FScattered clouds.8 mph53%30.01 "HgN/A
12:50 PM64 °FScattered clouds.12 mph56%30.01 "HgN/A
12:20 PM64 °FScattered clouds.10 mph60%30.01 "HgN/A
11:50 AM63 °FPassing clouds.10 mph64%30.01 "HgN/A
11:20 AM61 °FPassing clouds.8 mph72%29.98 "HgN/A
10:50 AM63 °FPassing clouds.10 mph64%29.98 "HgN/A
10:20 AM61 °FPassing clouds.7 mph77%29.98 "HgN/A
9:50 AM57 °FPassing clouds.6 mph88%29.98 "HgN/A
9:20 AM55 °FScattered clouds.6 mph94%29.98 "HgN/A
8:50 AM55 °FPartly sunny.5 mph94%29.98 "HgN/A
8:20 AM54 °FPartly sunny.7 mph100%29.95 "HgN/A
7:50 AM54 °FPartly sunny.6 mph100%29.95 "HgN/A
7:20 AM52 °FPartly sunny.5 mph100%29.95 "Hg5 mi
6:50 AM52 °FFog.3 mph100%29.95 "Hg0 mi
5:50 AM52 °FScattered clouds.5 mph100%29.95 "Hg3 mi
5:20 AM52 °FFog.5 mph100%29.95 "Hg0 mi
4:50 AM50 °FFog.5 mph100%29.95 "Hg0 mi
4:20 AM52 °FPassing clouds.3 mph100%29.95 "Hg6 mi
3:50 AM54 °FPassing clouds.3 mph94%29.95 "HgN/A
3:20 AM52 °FPassing clouds.5 mph100%29.98 "HgN/A
2:50 AM52 °FPassing clouds.3 mph100%29.98 "HgN/A
2:20 AM52 °FPassing clouds.6 mph100%29.98 "HgN/A
1:50 AM54 °FPassing clouds.5 mph94%29.95 "HgN/A
1:20 AM54 °FLow clouds.5 mph94%29.98 "HgN/A
12:50 AM54 °FPassing clouds.8 mph94%29.98 "HgN/A
12:20 AM52 °FClear.8 mph100%29.98 "Hg10 mi
11:50 PM
Sun, Aug 2
54 °FClear.7 mph94%29.98 "Hg10 mi
11:20 PM54 °FClear.7 mph88%29.98 "Hg10 mi
10:50 PM54 °FClear.6 mph88%29.98 "Hg10 mi
10:20 PM54 °FSunny.3 mph94%29.98 "Hg10 mi
9:50 PM55 °FLight rain. Partly sunny.7 mph88%29.98 "HgN/A
9:20 PM55 °FLight rain. Partly sunny.6 mph94%29.98 "HgN/A
8:50 PM57 °FSunny.6 mph88%29.98 "Hg10 mi
8:20 PM57 °FPassing clouds.5 mph88%29.98 "HgN/A
Weather by CustomWeather, © 2015

See weather overviewHow to use our weather pages